Location: Bonny Doon Airfield
(37.0704°N, 122.1252°W)
Time: 14:22:18
(UTC-07:00)

Vanguard 2 - Visible Passes

Search period start: 17 July 2018 00:00
Search period end: 27 July 2018 00:00
Orbit: 553 x 2939 km, 32.9° (Epoch: 17 July)

Date Brightness Start Highest point End Pass type
(mag) Time Alt. Az. Time Alt. Az. Time Alt. Az.
17 Jul 10.0 01:52:30 10° W 02:06:43 44° SW 02:06:43 44° SW visible
17 Jul 10.3 21:44:38 10° W 22:02:05 77° S 22:18:25 10° E visible
17 Jul 10.0 23:57:06 10° W 00:14:49 67° SSW 00:21:08 42° SE visible
18 Jul 10.4 02:11:16 10° W 02:22:27 33° WSW 02:22:27 33° WSW visible
18 Jul 10.3 22:02:53 10° W 22:20:25 77° S 22:35:39 13° ESE visible
19 Jul 10.0 00:15:30 10° W 00:32:54 60° SSW 00:36:59 49° SSE visible
19 Jul 10.8 02:30:19 10° W 02:38:18 24° WSW 02:38:18 24° WSW visible
19 Jul 10.2 22:21:10 10° W 22:38:46 75° S 22:51:35 21° ESE visible
20 Jul 10.0 00:33:59 10° W 00:50:49 52° SSW 00:52:54 50° S visible
20 Jul 11.2 02:49:57 10° W 02:54:14 16° WSW 02:54:14 16° WSW visible
20 Jul 10.4 20:28:11 10° WSW 20:43:55 76° S 21:01:40 10° E visible
20 Jul 10.2 22:39:28 10° W 22:57:02 71° SSW 23:07:34 29° ESE visible
21 Jul 10.3 00:52:33 10° W 01:08:37 44° SW 01:08:54 44° SSW visible
21 Jul 10.4 20:46:20 10° W 21:02:15 77° S 21:19:57 10° E visible
21 Jul 10.3 22:57:48 10° W 23:15:13 65° SSW 23:23:36 36° SE visible
22 Jul 10.6 01:11:20 10° W 01:24:56 35° SW 01:24:56 35° SW visible
22 Jul 10.4 21:04:32 10° W 21:20:36 76° S 21:38:12 10° ESE visible
22 Jul 10.3 23:16:10 10° W 23:33:18 58° SSW 23:39:42 42° SSE visible
23 Jul 10.9 01:30:27 10° W 01:41:01 27° WSW 01:41:01 27° WSW visible
23 Jul 10.4 21:22:45 10° W 21:38:56 74° S 21:54:29 15° ESE visible
23 Jul 10.3 23:34:36 10° W 23:51:15 50° SSW 23:55:50 43° S visible
24 Jul 11.2 01:50:12 10° W 01:57:11 19° WSW 01:57:11 19° WSW visible
24 Jul 10.4 21:40:59 10° W 21:57:11 69° SSW 22:10:40 21° ESE visible
24 Jul 10.5 23:53:10 10° W 00:09:06 42° SW 00:12:01 40° SSW visible
25 Jul 11.5 02:11:15 10° WSW 02:13:23 12° WSW 02:13:23 12° WSW visible
25 Jul 10.4 21:59:15 10° W 22:15:23 63° SSW 22:26:54 26° SE visible
26 Jul 10.7 00:11:59 10° W 00:26:49 34° SW 00:28:16 34° SSW visible
26 Jul 10.5 22:17:34 10° W 22:33:29 55° SSW 22:43:12 30° SE visible
